Weather History for Montpelier, VT

Change the Weather History Date:

Tuesday, February 11, 2014

  Actual Average Record
Temperature  
Mean Temperature 3 °F 19 °F  
Max Temperature 12 °F 29 °F 52 °F (1966)
Min Temperature -7 °F 9 °F -22 °F (1983)
Degree Days  
Heating Degree Days 62 46  
Month to date heating degree days 534 516  
Since 1 July heating degree days 5341 5161  
Moisture  
Dew Point -1 °F    
Average Humidity 79    
Maximum Humidity 95    
Minimum Humidity 63    
Precipitation  
Precipitation T in 0.08 in 0.99 in (1981)
Month to date precipitation 0.54 0.84  
Year to date precipitation 2.37 3.29  
Sea Level Pressure  
Sea Level Pressure 30.31 in    
Wind  
Wind Speed 6 mph (NW)    
Max Wind Speed 17 mph    
Max Gust Speed 26 mph    
Visibility 9 miles    
Events Snow    
T = Trace of Precipitation, MM = Missing Value Source: NWS Daily Summary

Daily Weather History Graph

Daily Weather History Graph

Search for Another Location

Airport:

Trip Planner

Search our weather history database for the weather conditions in past years. The results will help you decide how hot, cold, wet, or windy it might be!

Date:

Astronomy

Feb. 11, 2014 Rise Set
Actual Time 6:55 AM EST 5:14 PM EST
Civil Twilight 6:25 AM EST 5:44 PM EST
Nautical Twilight 5:51 AM EST 6:18 PM EST
Astronomical Twilight 5:17 AM EST 6:51 PM EST
Moon 2:29 PM EST (2/11) 4:33 AM EST (2/11)
Length of Visible Light 11h 18m
Length of Day
10h 18m
Waxing Gibbous, 90% of the Moon is Illuminated
Feb 11
Waxing Gibbous
Feb 14
Full
Feb 22
Last Quarter
Mar 1
New
Mar 8
First Quarter

Hourly Weather History & Observations

Time (EST) Temp. Windchill Dew Point Humidity Pressure Visibility Wind Dir Wind Speed Gust Speed Precip Events Conditions
12:14 AM 3.9 °F - 1.0 °F 88% 30.16 in 3.0 mi Calm Calm - 0.00 in Snow Light Snow
12:51 AM 1.9 °F - -0.0 °F 91% 30.24 in 7.0 mi Calm Calm - 0.00 in   Mostly Cloudy
1:51 AM 1.9 °F - -2.0 °F 83% 30.25 in 5.0 mi Calm Calm - 0.00 in   Overcast
2:28 AM 3.9 °F -3.4 °F -0.9 °F 80% 30.16 in 9.0 mi NW 3.5 mph - N/A   Scattered Clouds
2:51 AM 1.9 °F - -0.9 °F 88% 30.24 in 9.0 mi Calm Calm - N/A   Clear
3:51 AM 1.0 °F -6.7 °F -2.0 °F 87% 30.25 in 10.0 mi SSW 3.5 mph - N/A   Clear
4:41 AM 3.0 °F - -0.9 °F 84% 30.18 in 6.0 mi Calm Calm - N/A   Mostly Cloudy
4:51 AM 1.9 °F - -2.0 °F 83% 30.27 in 6.0 mi Calm Calm - N/A   Mostly Cloudy
5:09 AM -0.0 °F - -2.9 °F 88% 30.18 in 8.0 mi Calm Calm - N/A   Scattered Clouds
5:51 AM 1.9 °F -7.6 °F -0.9 °F 88% 30.28 in 9.0 mi West 4.6 mph - N/A   Partly Cloudy
6:18 AM 3.0 °F -8.0 °F -0.0 °F 87% 30.20 in 8.0 mi West 5.8 mph - N/A   Mostly Cloudy
6:51 AM 3.0 °F -6.4 °F -0.9 °F 84% 30.30 in 8.0 mi West 4.6 mph - N/A   Overcast
7:51 AM 3.9 °F - -0.0 °F 84% 30.32 in 5.0 mi Calm Calm - N/A   Overcast
8:14 AM 3.9 °F - 3.0 °F 96% 30.23 in 2.5 mi Calm Calm - N/A   Overcast
8:21 AM 5.0 °F - 3.9 °F 95% 30.23 in 5.0 mi Calm Calm - N/A   Overcast
8:39 AM 6.1 °F - 5.0 °F 95% 30.23 in 10.0 mi Calm Calm - N/A   Scattered Clouds
8:51 AM 6.1 °F -2.8 °F 3.0 °F 87% 30.33 in 10.0 mi NW 4.6 mph - N/A   Clear
9:24 AM 7.0 °F -3.3 °F 3.0 °F 84% 30.24 in 10.0 mi NW 5.8 mph - N/A   Mostly Cloudy
9:51 AM 8.1 °F 1.4 °F 3.0 °F 80% 30.35 in 10.0 mi NW 3.5 mph - N/A   Overcast
10:18 AM 9.0 °F -5.9 °F -0.0 °F 67% 30.26 in 9.0 mi NW 11.5 mph - N/A   Overcast
10:30 AM 9.0 °F -6.6 °F -0.0 °F 67% 30.27 in 10.0 mi NW 12.7 mph 20.7 mph N/A   Overcast
10:43 AM 9.0 °F -6.6 °F -0.9 °F 64% 30.27 in 9.0 mi NW 12.7 mph 23.0 mph N/A   Overcast
10:51 AM 9.0 °F -7.9 °F -0.9 °F 64% 30.36 in 10.0 mi NW 15.0 mph 21.9 mph N/A   Overcast
11:51 AM 10.9 °F -4.1 °F -0.0 °F 61% 30.35 in 10.0 mi NNW 12.7 mph - 0.00 in   Mostly Cloudy
12:51 PM 10.9 °F -4.7 °F -0.0 °F 61% 30.34 in 10.0 mi North 13.8 mph - 0.00 in   Overcast
1:51 PM 10.9 °F -2.6 °F -0.9 °F 59% 30.34 in 10.0 mi NW 10.4 mph 17.3 mph N/A   Overcast
2:51 PM 10.9 °F -4.7 °F -0.9 °F 59% 30.35 in 10.0 mi North 13.8 mph - 0.00 in   Overcast
3:51 PM 10.0 °F -2.9 °F -0.9 °F 61% 30.37 in 10.0 mi NW 9.2 mph 19.6 mph N/A   Mostly Cloudy
4:12 PM 9.0 °F -5.1 °F -0.9 °F 64% 30.28 in 10.0 mi NNW 10.4 mph - N/A   Mostly Cloudy
4:35 PM 9.0 °F -4.2 °F -2.0 °F 61% 30.29 in 10.0 mi NW 9.2 mph - N/A   Partly Cloudy
4:51 PM 8.1 °F -6.2 °F -2.0 °F 64% 30.40 in 10.0 mi NW 10.4 mph - N/A   Clear
5:51 PM 6.1 °F -7.8 °F -2.9 °F 67% 30.42 in 10.0 mi NW 9.2 mph - N/A   Clear
6:51 PM 5.0 °F -9.1 °F -5.1 °F 63% 30.46 in 10.0 mi NW 9.2 mph - N/A   Clear
7:51 PM 3.9 °F -5.3 °F -5.1 °F 66% 30.48 in 10.0 mi NNW 4.6 mph - N/A   Overcast
8:51 PM 3.9 °F -3.4 °F -5.1 °F 66% 30.50 in 10.0 mi Variable 3.5 mph - N/A   Overcast
9:51 PM -0.0 °F -11.6 °F -6.0 °F 76% 30.51 in 10.0 mi ESE 5.8 mph - N/A   Partly Cloudy
10:51 PM -0.9 °F - -7.1 °F 75% 30.53 in 10.0 mi Calm Calm - N/A   Clear
11:51 PM -6.0 °F - -9.9 °F 83% 30.54 in 10.0 mi Calm Calm - N/A   Clear